1st November 2019 | Cape Town, South Africa

FNB Wines2Whales Shiraz (2019)

Stage 1 Teams

Pos Team Name Team Time Category (Pos)
1 NAD MTB 02:40:47 Men - Open (1)
2 Pyga Eurosteel 02:40:48 Men - Open (2)
3 DSV PRO CYCLING 02:40:48 Men - Open (3)
4 Jaguar Power Products 02:45:44 Men - Open (4)
5 SPOT Africa DEVMCO Umhlanga Arch 02:48:18 Men - Open (5)
6 Devonbosch Stellenbosch 02:50:20 Men - Open (6)
7 Canyon Werner 02:53:03 Men - Open (7)
8 PYGA Euro Steel 2 02:53:48 Men - Open (8)
9 Valley Electrical Titan Racing 02:54:02 Men - Open (9)
10 NFB Spine & Sport 02:56:26 Men - Open (10)
11 Hollard Namibia 02:56:28 Men - Sub-Vet (1)
12 Land Rover 7 03:00:30 Men - Sub-Vet (2)
13 DHL Express SSA 03:00:32 Men - Sub-Vet (3)
14 Woodstock Boys 03:00:35 Men - Open (11)
15 BMT Fairtree 03:01:32 Men - Open (12)
16 Spier 03:03:22 Men - Vet (1)
17 Rocky Mountain 03:04:34 Men - Masters (1)
18 Exxaro / PwC1 03:04:36 Men - Open (13)
19 Flying Venters 03:04:52 Men - Open (14)
20 Imbuko Giant 03:06:21 Men - Open (15)
21 FNB Change a Life 03:07:12 Men - Open (16)
22 Bell’s cycling 03:08:06 Men - Open (17)
23 FNB Change a Life 1 03:08:48 Men - Open (18)
24 Exxaro / RMB1 03:08:48 Men - Open (19)
25 LGE MIDAS 03:08:52 Men - Vet (2)
26 2 Man Wolfpack 03:09:25 Men - Sub-Vet (4)
27 FNB Change a Life 4 03:09:44 Men - Open (20)
28 Giant Vets 03:11:04 Men - Vet (3)
29 Seattle Coffee Co Softies 03:12:13 Men - Sub-Vet (5)
30 Spuds on the Run 03:12:41 Men - Sub-Vet (6)
31 Land Rover 03:12:43 Men - Sub-Vet (7)
32 Samsung Cape Air 03:12:46 Men - Masters (2)
33 skyPixX 03:13:57 Men - Sub-Vet (8)
34 Fairtree 03:13:58 Mixed (1)
35 Lantau Riders 03:14:06 Men - Sub-Vet (9)
36 Suck my wheel 03:14:54 Men - Open (21)
37 Giordana 03:14:57 Mixed (2)
38 FNB Change a Life 2 03:15:27 Men - Open (22)
39 Exxaro / Pepto 03:15:31 Men - Open (23)
40 Bike Mob 03:15:35 Men - Vet (4)
41 Winemakers 03:16:59 Men - Sub-Vet (10)
42 CANYON 03:17:46 Men - Open (24)
43 FXTM-VELOKHAYA 2 03:17:56 Men - Open (25)
44 Perfect Brew 03:18:42 Men - Masters (3)
45 BusinessPrint 03:19:00 Men - Vet (5)
46 PITSTOP SPORT 2 03:19:09 Mixed (3)
47 NPP RudPhil 03:20:04 Men - Sub-Vet (11)
48 LinAqua 03:20:34 Mixed (4)
49 70's Toppies 03:21:13 Men - Vet (6)
50 Cunning Stunts 03:22:07 Men - Vet (7)
51 Anna Foundation 03:22:27 Men - Vet (8)
52 Exxaro / Deloitte 03:22:33 Men - Open (26)
53 TBM Morf 03:22:55 Men - Sub-Vet (12)
54 Q36.5 03:23:02 Men - Masters (4)
55 Rainy Weather 03:23:18 Men - Vet (9)
56 JERUSALEM JET RACING 03:24:52 Men - Vet (10)
57 Jacques Hau 03:25:24 Men - Open (27)
58 Silverback Icon 03:25:43 Men - Sub-Vet (13)
59 Mens Foundation of South Africa 03:25:43 Men - Vet (11)
60 Singletrack 03:27:19 Men - Vet (12)
61 firstAscent 03:27:36 Men - Open (28)
62 Linksfield Ridge 03:28:01 Men - Vet (13)
63 Landrover ENL 03:28:14 Mixed (5)
64 BMT Fairtree 2 03:28:28 Men - Open (29)
65 Polyoak 03:28:53 Men - Open (30)
66 dormakaba 1 03:28:54 Men - Vet (14)
67 NAMIBIA2GO Gondwana 03:30:16 Men - Masters (5)
68 Zamalek 03:30:31 Men - Open (31)
69 Valley electrical titan racing mixed 03:31:13 Mixed (6)
70 MTB am See 03:31:26 Men - Sub-Vet (14)
71 TIBTastic 03:33:07 Men - Vet (15)
72 FXTM-VELOKHAYA 03:33:46 Men - Open (32)
73 William Simpson 03:33:56 Men - Vet (16)
74 Golfers 03:33:58 Men - Sub-Vet (15)
75 Scania 03:34:22 Men - Vet (17)
76 Cadence Nutrition 03:35:01 Men - Vet (18)
77 Fruitways 03:35:01 Mixed (7)
78 Intercooler 03:36:08 Men - Vet (19)
79 Asrin 03:36:25 Men - Sub-Vet (16)
80 R&R 03:36:33 Men - Vet (20)
81 PrimeTime 03:37:02 Men - Masters (6)
82 Imparables 3 03:37:19 Men - Sub-Vet (17)
83 La Forestiere 03:37:30 Men - Masters (7)
84 Bike Hub 03:37:50 Mixed (8)
85 Constantia Valley Estates 03:37:55 Men - Vet (21)
86 Hermanuspieterfontein 03:38:23 Men - Masters (8)
87 King Price 03:38:35 Men - Sub-Vet (18)
88 Team Spur 03:38:36 Men - Vet (22)
89 Spudnik 03:39:07 Men - Sub-Vet (19)
90 Atlantic Outlook 03:39:49 Men - Sub-Vet (20)
91 Exxaro / DMA 03:40:29 Men - Open (33)
92 booking.com 03:40:30 Mixed (9)
93 Valley electrical contractors 03:41:41 Men - Vet (23)
94 Pynfabriek 03:42:51 Men - Vet (24)
95 Team Ashburton 03:43:23 Men - Open (34)
96 Kinetic Racing Snakes 03:44:32 Men - Open (35)
97 Invicta 03:45:15 Men - Vet (25)
98 Span Spek en Eiers 03:45:30 Men - Vet (26)
99 GeoSync 03:45:54 Men - Vet (27)
100 Jazzman/Mannie 03:46:07 Men - Masters (9)
101 ModDog 03:46:08 Men - Vet (28)
102 Sportitalia 03:46:24 Men - Vet (29)
103 NMG 03:46:29 Men - Vet (30)
104 Gingaroo 03:47:00 Mixed (10)
105 Big nose and the Porra 03:47:14 Men - Vet (31)
106 SPOT Africa 03:47:19 Men - Sub-Vet (21)
107 Just Cruising 03:47:26 Men - Vet (32)
108 HERSEL DOGS 03:48:02 Men - Open (36)
109 BH Bikes 03:48:24 Men - Vet (33)
110 RA 03:49:11 Men - Open (37)
111 JOC 03:49:13 Men - Vet (34)
112 Vredehoek Skollies 03:49:13 Men - Vet (35)
113 Fritze and Rapha 03:49:38 Men - Open (38)
114 USN Two 03:49:40 Men - Open (39)
115 The Dirty South 03:49:57 Men - Sub-Vet (22)
116 VOLTEX EAGLE LIGHTING 03:50:06 Men - Vet (36)
117 ThomasTheRaceEngine 03:50:37 Men - Open (40)
118 Bhoni4kasi 03:50:38 Men - Sub-Vet (23)
119 Avontuur 03:50:49 Mixed (11)
120 Mauritius 03:50:52 Mixed (12)
121 Versus Socks 03:51:40 Men - Open (41)
122 Bootleggers 03:52:01 Men - Open (42)
123 Denker Capital HASHSEP Bicycle Brewing Co 03:52:15 Men - Vet (37)
124 DotCloud 03:52:24 Men - Open (43)
125 Tanya & Aubs 03:52:35 Mixed (13)
126 Team Sarus 03:52:50 Men - Open (44)
127 Team Sisu 03:52:55 Men - Open (45)
128 food lovers market 03:53:23 Men - Sub-Vet (24)
129 Off Road Eggs 03:53:28 Men - Vet (38)
130 Fatty & Chatty 03:53:49 Men - Vet (39)
131 Team Oryx 03:53:57 Men - Sub-Vet (25)
132 Cold Distrubution Services 03:54:35 Men - Open (46)
133 Yo-Yo 03:54:46 Men - Vet (40)
134 SparkWorks 03:55:14 Men - Sub-Vet (26)
135 Dormakaba 03:55:15 Men - Sub-Vet (27)
136 Kinetic Power 03:55:16 Men - Open (47)
137 El Muerte 03:55:24 Men - Sub-Vet (28)
138 Beers and Gears 03:55:35 Men - Open (48)
139 Old Mutual Wealth 03:55:46 Men - Vet (41)
140 team rjp 03:55:48 Men - Masters (10)
141 Daneel Ducks 03:55:55 Mixed (14)
142 Anderson Transport 1 03:56:04 Men - Open (49)
143 Rubber Side Down 03:56:14 Men - Sub-Vet (29)
144 Team Schuss 03:56:51 Men - Open (50)
145 MyLife Powered by Hollard 03:56:57 Men - Sub-Vet (30)
146 Radiohead 03:56:58 Men - Vet (42)
147 Vasbyt 03:57:26 Men - Sub-Vet (31)
148 PAIN FREE DENTISTS..FATHER AND SON 03:57:28 Men - Open (51)
149 Biltong 03:57:39 Men - Masters (11)
150 Moore 03:57:55 Men - Vet (43)
151 i1 Solutions 03:58:06 Men - Open (52)
152 Savanna - It's W2W but you can ride it 03:58:10 Men - Sub-Vet (32)
153 Table Mountain Bikers 03:58:30 Men - Sub-Vet (33)
154 Hollard Mixed 03:58:47 Mixed (15)
155 FDN 03:59:20 Men - Vet (44)
156 Vakansie Trap 03:59:22 Men - Vet (45)
157 NicnCor 03:59:37 Men - Vet (46)
158 Downing & Partners 03:59:46 Men - Vet (47)
159 Bestbikes/WMF coffee 04:00:16 Men - Vet (48)
160 Die Ooms 04:00:20 Men - Vet (49)
161 Herbalife 04:00:21 Men - Sub-Vet (34)
162 Can-Blitz 04:00:23 Men - Vet (50)
163 FULL SUS MORVELO 04:00:27 Men - Sub-Vet (35)
164 In-Spur-ation 04:00:30 Men - Sub-Vet (36)
165 Merlin Chartered Accountants 04:01:08 Men - Masters (12)
166 TEAM CIOVITA 04:01:39 Men - Open (53)
167 Wasabi 04:02:34 Men - Vet (51)
168 spur arrows 04:02:45 Men - Sub-Vet (37)
169 Turbonators 04:03:08 Men - Open (54)
170 Team Squirt Cycling Products 04:03:25 Women - Open (1)
171 Team Lefty 04:03:51 Men - Vet (52)
172 Denker Capital 04:03:54 Men - Open (55)
173 Premium Boys 04:03:57 Men - Open (56)
174 Newton Johnson Wines 04:04:06 Men - Vet (53)
175 Cairnmead 04:04:51 Men - Open (57)
176 DimSum LoseSum 04:05:13 Women - Open (2)
177 Benko 04:05:29 Mixed (16)
178 Woolworths /Kwano 04:05:40 Men - Open (58)
179 Jackalriver 04:06:11 Men - Vet (54)
180 HOOP 04:06:20 Men - Vet (55)
181 Rehidrat 04:06:26 Women - Open (3)
182 Wild wanderers 04:06:29 Men - Masters (13)
183 He aint heavy, he's my brother 04:06:50 Men - Sub-Vet (38)
184 1tonners 04:07:25 Men - Vet (56)
185 Cattle men 04:08:36 Men - Masters (14)
186 Kalahari Ferrari 04:08:45 Men - Masters (15)
187 Overberg MTB Events 04:08:59 Mixed (17)
188 MoWest 04:09:24 Men - Vet (57)
189 Off Piste 04:09:40 Men - Open (59)
190 Woodcentre 04:10:02 Men - Open (60)
191 Bell Equipment 04:10:07 Men - Vet (58)
192 Gears & Beers 04:11:08 Men - Sub-Vet (39)
193 Team Dormakaba 4 04:11:08 Mixed (18)
194 Hermanus Pharmacies 04:11:24 Mixed (19)
195 ELITE STAR RACING 04:11:29 Men - Open (61)
196 Team FNB 04:11:31 Men - Vet (59)
197 Praetor 04:11:34 Men - Masters (16)
198 Access Management 04:11:37 Men - Open (62)
199 Bush Trek'ers 04:11:46 Men - Sub-Vet (40)
200 Revolution Fit 04:11:58 Men - Open (63)
201 Team CBC 04:12:03 Men - Vet (60)
202 Amperdaar 04:12:07 Men - Open (64)
203 Ride4Elleny 04:12:10 Men - Sub-Vet (41)
204 Dust is Earned 04:12:24 Men - Vet (61)
205 Jahnig 04:12:43 Men - Sub-Vet (42)
206 Yster & Dikseun 04:13:22 Men - Vet (62)
207 Namola 04:13:26 Men - Open (65)
208 Living The Dream 04:13:27 Men - Vet (63)
209 Madmacs/Altes Landhaus 04:14:03 Men - Vet (64)
210 Team GSD 04:14:17 Mixed (20)
211 Timothy James Harlow Foundation 1 04:14:21 Men - Open (66)
212 Foodloverz 04:14:41 Men - Vet (65)
213 80s kids 04:14:54 Mixed (21)
214 songo.info 04:14:56 Men - Open (67)
215 OUTENIQUA LAB 04:15:05 Men - Vet (66)
216 Boardwalk Bears 04:15:14 Men - Vet (67)
217 CiM Automation 04:15:27 Men - Open (68)
218 ISA 53 04:15:37 Men - Open (69)
219 Hardegat word Sagtegat 04:15:39 Men - Sub-Vet (43)
220 Tokai Mafia 04:15:44 Men - Vet (68)
221 BH Boys 04:16:00 Men - Masters (17)
222 Devil’s peak 04:16:01 Men - Masters (18)
223 BH 04:16:01 Men - Masters (19)
224 WALVISSE 04:16:10 Men - Masters (20)
225 Abecrombe and Fitch 04:16:16 Mixed (22)
226 Itec team 1 04:17:16 Men - Vet (69)
227 Seated & Cleated 04:17:22 Men - Open (70)
228 Team StarF&S 04:17:32 Men - Vet (70)
229 Jango 04:17:36 Men - Sub-Vet (44)
230 2dollies 04:18:03 Women - Open (4)
231 Cadens Foundation of Hope 04:18:09 Men - Vet (71)
232 TEAM FLEXI 04:18:37 Men - Vet (72)
233 Double Espresso's 04:18:40 Men - Masters (21)
234 Bolt and pepper 04:18:55 Men - Vet (73)
235 BMT Fairtree 1 04:19:15 Men - Sub-Vet (45)
236 Rookie Project 04:19:43 Men - Open (71)
237 inQuba 04:19:48 Men - Masters (22)
238 KLS Consulting Eng 3 04:20:04 Men - Sub-Vet (46)
239 Spicey Dicey 04:20:18 Men - Masters (23)
240 King Price Mixed 04:20:22 Mixed (23)
241 Gorilla and Rampakesh 04:20:30 Men - Vet (74)
242 McBrood 04:20:31 Men - Masters (24)
243 Honey Badgers 04:21:03 Men - Open (72)
244 WYNTRAPPERS 04:21:07 Men - Sub-Vet (47)
245 STRATI-G PAINT CHEMISTRY 04:21:10 Men - Vet (75)
246 GO!Durban Cycle Academy 1 04:21:18 Men - Open (73)
247 Imparables 2 04:21:37 Mixed (24)
248 Namibian Bullets 04:21:40 Men - Vet (76)
249 2BIG2 04:21:49 Men - Vet (77)
250 Serious Woolies 04:22:13 Men - Vet (78)
251 Sheldon MYW1 04:22:16 Men - Open (74)
252 Investec Impi 04:22:22 Mixed (25)
253 The Wheel Thing 04:22:26 Mixed (26)
254 Seattle Coffee Co (The real men) 04:22:31 Men - Open (75)
255 Maloja Dialas Sweden 04:22:35 Men - Masters (25)
256 Northern Lights 04:22:41 Men - Masters (26)
257 dormakaba 4 04:23:01 Men - Sub-Vet (48)
258 Team DSA 04:23:08 Men - Vet (79)
259 HOESPOEPENTRAP 04:24:00 Men - Open (76)
260 KnottGood 04:24:41 Men - Masters (27)
261 Rusting Oaks 04:24:52 Men - Vet (80)
262 Big Box Gauteng 04:25:04 Men - Vet (81)
263 Maptsoft 04:25:21 Men - Vet (82)
264 TANSTAAFL 04:25:51 Men - Open (77)
265 INNOVISE DX 04:26:09 Men - Open (78)
266 Takealot 04:26:47 Men - Masters (28)
267 Sisu 1 04:26:58 Men - Vet (83)
268 Clean cut 04:27:11 Men - Vet (84)
269 Swarries 04:27:21 Men - Sub-Vet (49)
270 Imbuko 04:27:56 Men - Vet (85)
271 Team Maserati 04:28:05 Men - Vet (86)
272 De Hoop Mtb 04:28:09 Men - Open (79)
273 Exxaro / PwC2 04:28:23 Mixed (27)
274 TEAM GFD LOGISTICS 04:28:40 Men - Vet (87)
275 ELRO 04:29:02 Men - Open (80)
276 Cultura 04:29:43 Men - Sub-Vet (50)
277 Agrigate One 04:29:51 Men - Sub-Vet (51)
278 JARICA 04:29:52 Men - Masters (29)
279 Espin House 04:31:03 Men - Open (81)
280 Roderick MYW 3 04:31:16 Men - Open (82)
281 63 Models 04:31:57 Men - Open (83)
282 Team Stassen 04:32:23 Men - Vet (88)
283 AppleJoJo 04:33:13 Men - Vet (89)
284 Engaged Business Consultants 04:33:22 Men - Sub-Vet (52)
285 Team Talisman 04:33:28 Men - Sub-Vet (53)
286 Bianchi 04:33:30 Men - Vet (90)
287 Dubbel trouble 04:33:34 Men - Open (84)
288 WBHO 04:33:41 Men - Vet (91)
289 O-NEIL 04:33:41 Men - Vet (92)
290 Forrester 04:33:47 Men - Open (85)
291 Fire Seal / Krauss Glass 04:34:08 Men - Vet (93)
292 Ross-Kent 04:34:13 Men - Open (86)
293 Crash Test Dummies 04:34:28 Men - Masters (30)
294 ALPHA OMEGA 1 04:34:33 Men - Sub-Vet (54)
295 Young and Younger 04:34:56 Men - Sub-Vet (55)
296 PODIT 04:35:06 Mixed (28)
297 TeamRideAlong1 04:35:15 Men - Sub-Vet (56)
298 Crank Worx 04:35:24 Men - Open (87)
299 Lightning & Thunda 04:35:43 Men - Vet (94)
300 Spire 04:36:05 Men - Open (88)
301 Luda Capital 04:36:14 Men - Open (89)
302 Vertus consulting 04:36:20 Men - Sub-Vet (57)
303 Proper Life 04:36:57 Men - Vet (95)
304 CYCLE-O-PATHS 04:37:29 Men - Open (90)
305 Super Vye 04:37:34 Men - Vet (96)
306 Puma Namibia 04:37:44 Men - Open (91)
307 Swaeries 04:37:51 Men - Sub-Vet (58)
308 Kromco Kingfishers 04:38:20 Men - Sub-Vet (59)
309 Payflex/Road Cover 04:38:21 Women - Open (5)
310 Save Water drink Bubbles 04:38:50 Women - Open (6)
311 Woolies Foods 04:38:55 Men - Vet (97)
312 Rubicon gt 04:39:22 Men - Masters (31)
313 Itec team 2 04:39:32 Men - Sub-Vet (60)
314 SuperGroup 04:39:50 Men - Sub-Vet (61)
315 FOX5 04:40:25 Men - Sub-Vet (62)
316 Floating Dutchman 2 04:40:41 Men - Vet (98)
317 Goldfields Wifi & Fibre 04:41:06 Mixed (29)
318 Maplotters 04:41:38 Men - Vet (99)
319 Team Swaers 04:41:51 Men - Vet (100)
320 Racing Rockets 04:41:52 Men - Vet (101)
321 Fincheck 04:43:18 Men - Open (92)
322 Vonk & Vlam 04:43:24 Men - Vet (102)
323 #EssentialCleaning 04:43:32 Men - Vet (103)
324 AVCON 04:44:03 Men - Sub-Vet (63)
325 Fair Cape Mixed 04:44:25 Mixed (30)
326 Ashburton 2 04:44:53 Men - Open (93)
327 Noble Savages 04:45:02 Mixed (31)
328 Boland Hospice 04:45:21 Men - Masters (32)
329 Like Mother Like Daughter 04:45:40 Women - Open (7)
330 Wild Spirits 04:45:43 Men - Masters (33)
331 Lyngrove 04:45:48 Men - Masters (34)
332 KLS CONSULTING ENGINEERS 04:46:10 Men - Masters (35)
333 Powercote 04:47:15 Men - Masters (36)
334 ExxaroPwC1 04:47:25 Men - Sub-Vet (64)
335 GO!Durban Cycle Academy 2 04:47:27 Men - Open (94)
336 LAST MINUTE 04:47:33 Women - Open (8)
337 de boy's 04:47:58 Men - Vet (104)
338 Team Alpha 04:48:06 Men - Sub-Vet (65)
339 SNAP School 04:48:06 Men - Vet (105)
340 Hell Riders Cape 04:48:13 Men - Masters (37)
341 SportsWorld 04:49:06 Men - Vet (106)
342 Samaritans Feet SA 04:49:31 Men - Sub-Vet (66)
343 Devonbosch 04:49:39 Men - Masters (38)
344 ArgonSCS_2 04:49:43 Men - Vet (107)
345 HeroTel A - RVZ 04:49:54 Men - Open (95)
346 Cutoff Dodgers 04:49:57 Men - Vet (108)
347 Rehidrat Sport 04:49:58 Women - Open (9)
348 Old Bullets 04:50:14 Men - Masters (39)
349 Tebow 04:51:13 Men - Open (96)
350 Super Group 04:52:36 Men - Sub-Vet (67)
351 TeamRideAlong2 04:53:25 Men - Sub-Vet (68)
352 FNB Principal Investments 04:53:33 Men - Open (97)
353 PolonyRolls 04:53:36 Men - Sub-Vet (69)
354 Khan&Fataar 04:54:47 Men - Open (98)
355 STS ladies 04:54:51 Women - Open (10)
356 BakenKoppe 04:55:27 Men - Sub-Vet (70)
357 Yin & Yang 04:55:46 Mixed (32)
358 Trusc Wi-Flies 04:55:51 Men - Sub-Vet (71)
359 Betapoint - Pure 04:56:04 Men - Masters (40)
360 dormakaba 2 04:56:25 Men - Open (99)
361 2 old Farts 04:57:14 Men - Masters (41)
362 ArgonSCS_1 04:57:21 Men - Vet (109)
363 GritGorilla 04:57:25 Men - Masters (42)
364 Boost Boys 04:57:45 Men - Open (100)
365 The Gruffalo's 04:57:58 Men - Open (101)
366 Double Dip 04:58:08 Mixed (33)
367 Kermits return 04:58:16 Men - Open (102)
368 Rooibos 04:58:26 Men - Vet (110)
369 Team Bantry 04:58:30 Men - Open (103)
370 CNA 04:58:40 Men - Sub-Vet (72)
371 Warthogs 04:58:56 Men - Vet (111)
372 Funny Farmers 04:59:15 Mixed (34)
373 Beeld 04:59:23 Mixed (35)
374 Princeton 04:59:23 Mixed (36)
375 Blessed 04:59:34 Men - Vet (112)
376 Barries 04:59:53 Men - Sub-Vet (73)
377 BIKEWAHN-Racing 05:00:03 Mixed (37)
378 The Bomb Bankers 05:00:11 Men - Open (104)
379 Belgian combo 05:00:50 Men - Open (105)
380 Envestpro 05:00:51 Men - Vet (113)
381 Medipost 05:01:02 Men - Masters (43)
382 Wolf Pack 05:01:24 Men - Sub-Vet (74)
383 Stoffel and the Machine 05:01:50 Men - Masters (44)
384 Tight butts and sweaty nuts 05:02:11 Men - Open (106)
385 WEC-Consult 05:03:02 Men - Open (107)
386 Joeys Sunshine 05:03:11 Men - Open (108)
387 KLS Consulting 05:03:12 Men - Sub-Vet (75)
388 Da2Docs 05:04:19 Men - Masters (45)
389 tough bastard 05:04:26 Men - Vet (114)
390 Trident Racing 05:04:37 Men - Sub-Vet (76)
391 The Rockets 05:04:48 Men - Vet (115)
392 Bizfind 05:05:02 Men - Vet (116)
393 Hollard MoterXtender 05:05:12 Men - Sub-Vet (77)
394 TeamRideAlong#3 05:05:12 Men - Vet (117)
395 Team Klameron 05:05:14 Men - Open (109)
396 Airborne 05:05:31 Mixed (38)
397 Axient Architects 05:05:48 Men - Sub-Vet (78)
398 Logista 05:05:55 Men - Sub-Vet (79)
399 Superfast 05:05:58 Men - Masters (46)
400 Bike Messengers 05:06:05 Men - Open (110)
401 AdventuRas 05:06:33 Mixed (39)
402 Lyne Components 05:06:34 Men - Masters (47)
403 Surf and Turf 05:06:56 Men - Masters (48)
404 the Beard & the Babe 05:07:46 Mixed (40)
405 Rushton/Buhrmann 05:09:05 Men - Open (111)
406 Wilger 64 05:09:21 Mixed (41)
407 Extraordinary Truth 05:11:13 Men - Vet (118)
408 Riders on the Storm 05:11:17 Men - Open (112)
409 Rising Sun 05:11:19 Men - Masters (49)
410 Khaltsha Cycles 05:12:54 Men - Open (113)
411 Braamblues 05:13:14 Men - Vet (119)
412 Smith & Assosiate 05:13:16 Men - Vet (120)
413 Alpha’s 05:13:19 Men - Open (114)
414 Flower Pedal 05:13:22 Mixed (42)
415 Edge Telematics 05:13:54 Men - Sub-Vet (80)
416 LEEHAN 05:14:16 Mixed (43)
417 Paddle Power 05:14:25 Men - Masters (50)
418 NatSpur 05:14:54 Men - Open (115)
419 Rockstars 05:15:07 Men - Open (116)
420 Anderson Transport 2 05:15:15 Men - Vet (121)
421 VOLVO Trucks 05:15:23 Men - Open (117)
422 TREAD - MTB With Soul 05:15:35 Mixed (44)
423 Tribbes 05:16:14 Men - Open (118)
424 Van’s 05:16:16 Men - Masters (51)
425 PnP Khayelitsha 05:17:09 Men - Vet (122)
426 ALPHA OMEGA 2 05:18:28 Men - Sub-Vet (81)
427 IMPARABLES 05:18:29 Men - Vet (123)
428 Gold Friends 05:18:37 Men - Masters (52)
429 The Whale Buddies 05:18:49 Men - Open (119)
430 Whine2Wine 05:19:27 Mixed (45)
431 GAAP 05:19:39 Men - Vet (124)
432 The Gap Partnership 05:19:46 Men - Vet (125)
433 Young Gilletts 05:21:22 Mixed (46)
434 Impact 05:22:28 Men - Sub-Vet (82)
435 Prinsfontein 05:22:35 Men - Masters (53)
436 Planet Shoes 05:24:28 Men - Vet (126)
437 Gee die hond wind 05:27:12 Men - Sub-Vet (83)
438 Continental 05:28:07 Men - Vet (127)
439 Beatsy Boys 05:28:10 Men - Open (120)
440 Jamian MYW2 05:29:31 Men - Open (121)
441 Granite Works/Dals 05:29:42 Men - Masters (54)
442 Legends 45 05:30:07 Men - Vet (128)
443 Whoopsy 05:30:16 Men - Vet (129)
444 DanPro 05:30:19 Men - Vet (130)
445 Twizza Twins 05:30:39 Men - Open (122)
446 Team Vuselela 05:31:29 Men - Vet (131)
447 Napier Trappers 05:31:30 Men - Sub-Vet (84)
448 Steak Boys 05:31:35 Men - Vet (132)
449 Spur crocks 05:32:09 Men - Open (123)
450 Woolworths Drag 'n Fly 05:32:11 Men - Sub-Vet (85)
451 Rendev 05:32:18 Men - Sub-Vet (86)
452 2 Shades of Grey 05:32:39 Men - Sub-Vet (87)
453 Truck & Trailer 05:32:47 Men - Open (124)
454 Ibhayi Masters 05:33:28 Mixed (47)
455 Spumble 05:33:35 Mixed (48)
456 Olerotweiss 05:33:39 Mixed (49)
457 Oldmaninlycra 05:33:48 Men - Masters (55)
458 PR Engineering 05:34:35 Men - Open (125)
459 Khombisa 05:35:14 Mixed (50)
460 Hooked 05:35:24 Women - Open (11)
461 Woolworths Team Supreme 05:35:51 Men - Open (126)
462 Hippo & Giraffe 05:35:55 Men - Masters (56)
463 Too inspired to be Tired 05:37:48 Men - Vet (133)
464 Craftwerk Brewing 05:38:56 Men - Open (127)
465 Boer en die Skot 05:39:07 Men - Vet (134)
466 Spilo Express 05:40:15 Men - Open (128)
467 Golden Oldies 05:40:47 Men - Masters (57)
468 Lijeni 05:40:59 Men - Masters (58)
469 Exxaro Academy 05:41:04 Mixed (51)
470 Centurion Malisha 05:41:13 Men - Sub-Vet (88)
471 Team Unoff 05:41:14 Men - Vet (135)
472 TrapHom 05:41:53 Men - Vet (136)
473 ALPHA OMEGA 3 05:42:39 Men - Vet (137)
474 Cork Supply 05:42:39 Men - Vet (138)
475 LifeWize 05:43:54 Men - Sub-Vet (89)
476 Safar's 05:44:35 Mixed (52)
477 Survive it 05:45:07 Men - Sub-Vet (90)
478 Swakop 05:45:56 Mixed (53)
479 KZN 05:46:38 Mixed (54)
480 Sabi Sabi 05:47:23 Men - Vet (139)
481 Carve MuGra 05:48:14 Men - Vet (140)
482 Fishy-Brinks 05:48:48 Mixed (55)
483 SAXON 05:49:25 Men - Open (129)
484 Anderson Transport 3 05:50:30 Men - Sub-Vet (91)
485 Mello yellow 05:52:50 Men - Vet (141)
486 Talisman and a Lady 05:53:44 Mixed (56)
487 JCap Novices 05:54:58 Men - Open (130)
488 2BIG 05:56:07 Men - Open (131)
489 Distell EDGE 05:57:08 Men - Vet (142)
490 Hartman-Lintvelt 05:58:12 Men - Open (132)
491 Van Tuyl 05:59:15 Men - Vet (143)
492 Mountain Bike Magazine 05:59:23 Men - Masters (59)
493 TwinIsh 05:59:33 Mixed (57)
494 Fatti & Moany 06:00:49 Men - Vet (144)
495 Blues 06:01:55 Men - Sub-Vet (92)
496 Latestarters 06:02:38 Men - Masters (60)
497 Pitstop 06:03:37 Men - Sub-Vet (93)
498 Mac and Cheese 06:03:43 Men - Vet (145)
499 Grumpy old men 06:04:09 Men - Open (133)
500 Paul Cluver Wines 06:04:31 Men - Vet (146)
501 G.I & Jo 06:08:35 Mixed (58)
502 De Aar Trappers 06:08:46 Men - Open (134)
503 MTB Buddies 06:08:50 Men - Open (135)
504 Figment Flyers 06:08:51 Men - Vet (147)
505 IMALI 06:08:53 Men - Vet (148)
506 The Sweepers 06:09:22 Mixed (59)
507 MacVogel 06:09:48 Men - Sub-Vet (94)
508 Los Diablos 06:10:01 Men - Vet (149)
509 Bold & The Beautiful 06:11:08 Mixed (60)
510 BIJOUX STUDIO HASHSEP KO-KREATE SAINTS 06:11:27 Men - Sub-Vet (95)
511 HairRaisers 06:11:36 Men - Open (136)
512 Logista 06:12:50 Men - Vet (150)
513 Khan&Mohamood 06:13:52 Men - Vet (151)
514 VUSELELA 06:15:07 Men - Masters (61)
515 Tandem 06:16:08 Men - Sub-Vet (96)
516 Swellentoria 06:18:42 Men - Vet (152)
517 DarkAle 06:19:24 Men - Vet (153)
518 Hotandcold 06:19:59 Men - Sub-Vet (97)
519 Macit 06:21:11 Men - Masters (62)
520 Huge Pain 06:28:37 Men - Open (137)
521 Winelaw 06:30:47 Men - Vet (154)
522 VDV Eagles 06:31:20 Men - Open (138)
523 Wing It 06:32:02 Mixed (61)
524 Just 4Fun 06:33:58 Mixed (62)
525 Rentech Trading 06:35:55 Men - Sub-Vet (98)
526 Citricom 06:42:36 Men - Open (139)
527 Forum 1 06:50:24 Men - Open (140)
528 Figment 06:51:36 Men - Open (141)
529 Bars & Bras 06:51:54 Women - Open (12)
530 Gooi Mielies 06:51:56 Men - Open (142)
531 Shimmy Shammy 06:52:23 Men - Masters (63)
532 Kinetic Racing Snakes2 07:04:42 Mixed (63)
533 Los Perdidos 07:25:13 Mixed (64)
534 We Showed Up 07:38:46 Men - Vet (155)
535 Sister Soweto 07:41:37 Mixed (65)
536 Carpe Diem 07:46:12 Men - Masters (64)
537 Old School 07:51:33 Men - Vet (156)
538 AZTECS 08:00:56 Men - Vet (157)
539 Sharman and Hobbo 08:26:38 Men - Sub-Vet (99)
540 Amabhubesi 08:33:58 Men - Open (143)
541 Venzyk 09:24:47 Men - Vet (158)
- Virseker Men - Open
- Weekend warriors 2 Mixed
- Genfin Men - Open
- W2W Men - Sub-Vet
- Pin Winner Men - Open
- SwimBikeRun Men - Vet
- The Vets Men - Vet
- Terrain Tamer 2 Men - Vet
- Team SPCA - Liza & Vernon Mixed
- SDS Attorneys Men - Masters
- Ruwacon 100 Men - Vet
- Space-Id Men - Masters
- Stormriders Men - Vet
- OGMF Men - Vet
- OntheGo Men - Open
- OrionPM Men - Vet
- Paul Cluver Men - Vet
- More wine than whales Men - Open
- Mullers Men - Masters
- B4K Men - Open
- Banana Watts Men - Vet
- CCT Slugs Men - Sub-Vet
- Brulpadda Men - Vet
- Dad & Son Men - Open
- die ou manne Men - Masters
- khalthsa Cycles Men - Open
- JW Men - Masters
- Ideso - Adrenalin bikes Men - Masters
- Floating Dutchman Men - Sub-Vet
- #ysters Women - Open